| time (UTC) | temp C | wind direction | speed KPH | gust KPH | rain 1hr cm | rain 24hr cm | rain mn cm | humidity % | barometer mb |
| 20260505193122 | 15 | 321 | 0.0 | 4.8 | 0.00 | 0.00 | 0.00 | 77 | 1016.8 |
| 20260505192623 | 15 | 252 | 1.6 | 3.2 | 0.00 | 0.00 | 0.00 | 80 | 1016.8 |
| 20260505192123 | 14 | 278 | 1.6 | 6.4 | 0.00 | 0.00 | 0.00 | 80 | 1016.8 |
| 20260505191622 | 14 | 181 | 1.6 | 6.4 | 0.00 | 0.00 | 0.00 | 80 | 1016.8 |
| 20260505191122 | 13 | 226 | 1.6 | 4.8 | 0.00 | 0.00 | 0.00 | 82 | 1016.8 |
| 20260505190627 | 13 | 217 | 3.2 | 6.4 | 0.00 | 0.00 | 0.00 | 82 | 1016.9 |
| 20260505190623 | 13 | 210 | 3.2 | 6.4 | 0.00 | 0.00 | 0.00 | 81 | 1016.9 |
| 20260505185622 | 13 | 197 | 1.6 | 6.4 | 0.00 | 0.00 | 0.00 | 82 | 1016.8 |
| 20260505185119 | 13 | 243 | 1.6 | 4.8 | 0.00 | 0.00 | 0.00 | 83 | 1016.8 |
| 20260505184620 | 13 | 249 | 3.2 | 6.4 | 0.00 | 0.00 | 0.00 | 84 | 1016.8 |
| 20260505184119 | 13 | 236 | 3.2 | 9.7 | 0.00 | 0.00 | 0.00 | 83 | 1016.9 |
| 20260505183619 | 13 | 182 | 1.6 | 9.7 | 0.00 | 0.00 | 0.00 | 83 | 1016.9 |
| 20260505183117 | 13 | 250 | 1.6 | 6.4 | 0.00 | 0.00 | 0.00 | 83 | 1016.9 |
| 20260505182619 | 13 | 266 | 3.2 | 8.0 | 0.00 | 0.00 | 0.00 | 84 | 1016.9 |
| 20260505182119 | 13 | 202 | 3.2 | 8.0 | 0.00 | 0.00 | 0.00 | 84 | 1016.8 |
| 20260505181617 | 13 | 230 | 3.2 | 9.7 | 0.00 | 0.00 | 0.00 | 84 | 1016.8 |
| 20260505181123 | 13 | 184 | 4.8 | 12.9 | 0.00 | 0.00 | 0.00 | 85 | 1016.7 |
| 20260505181118 | 13 | 171 | 4.8 | 9.7 | 0.00 | 0.00 | 0.00 | 84 | 1016.8 |
| 20260505180116 | 12 | 232 | 4.8 | 12.9 | 0.00 | 0.00 | 0.00 | 84 | 1016.7 |
| 20260505175617 | 12 | 220 | 3.2 | 11.3 | 0.00 | 0.00 | 0.00 | 84 | 1016.7 |
| 20260505175116 | 12 | 275 | 3.2 | 8.0 | 0.00 | 0.00 | 0.00 | 84 | 1016.7 |
| 20260505174616 | 12 | 268 | 3.2 | 8.0 | 0.00 | 0.00 | 0.00 | 85 | 1016.7 |
| 20260505174116 | 12 | 159 | 1.6 | 8.0 | 0.00 | 0.00 | 0.00 | 84 | 1016.7 |
| 20260505173621 | 12 | 235 | 4.8 | 9.7 | 0.00 | 0.00 | 0.00 | 84 | 1016.7 |
| 20260505173617 | 12 | 278 | 4.8 | 9.7 | 0.00 | 0.00 | 0.00 | 85 | 1016.8 |
| 20260505172614 | 12 | 207 | 3.2 | 9.7 | 0.00 | 0.00 | 0.00 | 85 | 1016.7 |
| 20260505172114 | 12 | 252 | 3.2 | 9.7 | 0.00 | 0.00 | 0.00 | 85 | 1016.6 |
| 20260505171615 | 12 | 247 | 3.2 | 9.7 | 0.00 | 0.00 | 0.00 | 85 | 1016.4 |
| 20260505171112 | 12 | 284 | 4.8 | 9.7 | 0.00 | 0.00 | 0.00 | 85 | 1016.6 |
| 20260505170613 | 12 | 237 | 1.6 | 8.0 | 0.00 | 0.00 | 0.00 | 85 | 1016.4 |
| 20260505170118 | 12 | 212 | 3.2 | 9.7 | 0.00 | 0.00 | 0.00 | 86 | 1016.4 |
| 20260505170112 | 12 | 286 | 3.2 | 9.7 | 0.00 | 0.00 | 0.00 | 85 | 1016.4 |
| 20260505165110 | 12 | 251 | 4.8 | 8.0 | 0.00 | 0.00 | 0.00 | 86 | 1016.3 |
| 20260505164610 | 12 | 221 | 4.8 | 8.0 | 0.00 | 0.00 | 0.00 | 85 | 1016.3 |
| 20260505164233 | 12 | 254 | 1.6 | 9.7 | 0.00 | 0.00 | 0.00 | 87 | 1016.2 |
| 20260505164115 | 12 | 169 | 1.6 | 8.0 | 0.00 | 0.00 | 0.00 | 86 | 1016.2 |
| 20260505164110 | 12 | 231 | 3.2 | 8.0 | 0.00 | 0.00 | 0.00 | 86 | 1016.3 |
| 20260505163213 | 12 | 241 | 0.0 | 4.8 | 0.00 | 0.00 | 0.00 | 87 | 1016.2 |
| 20260505162110 | 12 | 299 | 1.6 | 6.4 | 0.00 | 0.00 | 0.00 | 87 | 1016.2 |
| 20260505162106 | 12 | 285 | 1.6 | 9.7 | 0.00 | 0.00 | 0.00 | 87 | 1016.2 |
| 20260505161107 | 12 | 271 | 1.6 | 8.0 | 0.00 | 0.00 | 0.00 | 88 | 1016.1 |
| 20260505160609 | 12 | 195 | 1.6 | 9.7 | 0.00 | 0.00 | 0.00 | 88 | 1016.2 |
| 20260505160603 | 12 | 271 | 1.6 | 9.7 | 0.00 | 0.00 | 0.00 | 88 | 1016.1 |
| 20260505153059 | 11 | 273 | 1.6 | 6.4 | 0.00 | 0.00 | 0.00 | 90 | 1016.0 |
| 20260505152600 | 11 | 245 | 1.6 | 6.4 | 0.00 | 0.00 | 0.00 | 90 | 1016.1 |
| 20260505152101 | 11 | 288 | 0.0 | 4.8 | 0.00 | 0.00 | 0.00 | 90 | 1016.1 |
| 20260505151605 | 11 | 252 | 1.6 | 11.3 | 0.00 | 0.00 | 0.00 | 90 | 1016.1 |
| 20260505151559 | 11 | 261 | 0.0 | 6.4 | 0.00 | 0.00 | 0.00 | 90 | 1016.0 |
| 20260505151221 | 11 | 251 | 1.6 | 11.3 | 0.00 | 0.00 | 0.00 | 89 | 1016.0 |
| 20260505140554 | 11 | 231 | 0.0 | 6.4 | 0.00 | 0.00 | 0.00 | 90 | 1015.4 |
| 20260505124551 | 11 | 237 | 3.2 | 8.0 | 0.00 | 0.00 | 0.00 | 90 | 1015.1 |
| 20260505124057 | 11 | 208 | 3.2 | 6.4 | 0.00 | 0.00 | 0.00 | 89 | 1015.0 |
| 20260505124051 | 11 | 243 | 3.2 | 8.0 | 0.00 | 0.00 | 0.00 | 90 | 1014.9 |
| 20260505123052 | 11 | 252 | 3.2 | 8.0 | 0.00 | 0.00 | 0.00 | 89 | 1015.0 |
| 20260505122551 | 11 | 243 | 1.6 | 8.0 | 0.00 | 0.00 | 0.00 | 89 | 1015.0 |
| 20260505122048 | 11 | 223 | 0.0 | 4.8 | 0.00 | 0.00 | 0.00 | 89 | 1015.0 |
| 20260505121548 | 11 | 257 | 1.6 | 4.8 | 0.00 | 0.00 | 0.00 | 89 | 1015.0 |
| 20260505121047 | 11 | 259 | 1.6 | 6.4 | 0.00 | 0.00 | 0.00 | 89 | 1014.9 |
| 20260505120547 | 11 | 242 | 3.2 | 6.4 | 0.00 | 0.00 | 0.00 | 89 | 1014.9 |
| 20260505120051 | 11 | 240 | 1.6 | 4.8 | 0.00 | 0.00 | 0.00 | 89 | 1014.8 |
| 20260505120046 | 11 | 220 | 1.6 | 6.4 | 0.00 | 0.00 | 0.00 | 89 | 1014.8 |
| 20260505115043 | 11 | 265 | 1.6 | 6.4 | 0.00 | 0.00 | 0.00 | 89 | 1014.9 |
| 20260505114544 | 11 | 267 | 1.6 | 6.4 | 0.00 | 0.00 | 0.00 | 89 | 1014.8 |
| 20260505114049 | 11 | 259 | 1.6 | 6.4 | 0.00 | 0.00 | 0.00 | 88 | 1014.9 |
| 20260505114045 | 11 | 267 | 1.6 | 6.4 | 0.00 | 0.00 | 0.00 | 89 | 1014.8 |
| 20260505113049 | 11 | 231 | 1.6 | 4.8 | 0.00 | 0.00 | 0.00 | 89 | 1014.8 |
| 20260505113044 | 11 | 257 | 1.6 | 4.8 | 0.00 | 0.00 | 0.00 | 89 | 1014.8 |
| 20260505112044 | 11 | 252 | 1.6 | 4.8 | 0.00 | 0.00 | 0.00 | 88 | 1014.8 |
| 20260505111545 | 11 | 253 | 1.6 | 4.8 | 0.00 | 0.00 | 0.00 | 88 | 1014.9 |
| 20260505111043 | 11 | 231 | 1.6 | 4.8 | 0.00 | 0.00 | 0.00 | 88 | 1014.8 |
| 20260505110543 | 11 | 266 | 1.6 | 4.8 | 0.00 | 0.00 | 0.00 | 88 | 1014.7 |
| 20260505102037 | 11 | 226 | 1.6 | 8.0 | 0.00 | 0.00 | 0.00 | 88 | 1014.4 |
| 20260505101539 | 11 | 244 | 0.0 | 3.2 | 0.00 | 0.00 | 0.00 | 88 | 1014.4 |
| 20260505101036 | 11 | 267 | 1.6 | 11.3 | 0.00 | 0.00 | 0.00 | 89 | 1014.3 |
| 20260505100536 | 11 | 244 | 3.2 | 11.3 | 0.00 | 0.00 | 0.00 | 88 | 1014.4 |
| 20260505100036 | 11 | 238 | 1.6 | 8.0 | 0.00 | 0.00 | 0.00 | 88 | 1014.4 |
| 20260505095536 | 11 | 260 | 3.2 | 8.0 | 0.00 | 0.00 | 0.00 | 88 | 1014.4 |
| 20260505095037 | 11 | 215 | 1.6 | 8.0 | 0.00 | 0.00 | 0.00 | 88 | 1014.4 |
| 20260505094537 | 11 | 257 | 1.6 | 6.4 | 0.00 | 0.00 | 0.00 | 88 | 1014.3 |
| 20260505094041 | 11 | 257 | 0.0 | 4.8 | 0.00 | 0.00 | 0.00 | 89 | 1014.3 |
| 20260505094037 | 11 | 236 | 1.6 | 6.4 | 0.00 | 0.00 | 0.00 | 88 | 1014.3 |
| 20260505093151 | 11 | 238 | 1.6 | 6.4 | 0.00 | 0.00 | 0.00 | 88 | 1014.2 |
| 20260505093037 | 11 | 260 | 1.6 | 6.4 | 0.00 | 0.00 | 0.00 | 88 | 1014.2 |
| 20260505093032 | 11 | 259 | 0.0 | 4.8 | 0.00 | 0.00 | 0.00 | 89 | 1014.3 |
| 20260505091533 | 11 | 264 | 1.6 | 9.7 | 0.00 | 0.00 | 0.00 | 88 | 1014.1 |
| 20260505091037 | 11 | 260 | 1.6 | 9.7 | 0.00 | 0.00 | 0.00 | 88 | 1014.0 |
| 20260505091033 | 11 | 252 | 1.6 | 9.7 | 0.00 | 0.00 | 0.00 | 88 | 1014.1 |
| 20260505090529 | 11 | 246 | 3.2 | 9.7 | 0.00 | 0.00 | 0.00 | 88 | 1014.0 |
| 20260505085531 | 11 | 261 | 0.0 | 4.8 | 0.00 | 0.00 | 0.00 | 88 | 1014.0 |
| 20260505085029 | 11 | 287 | 1.6 | 12.9 | 0.00 | 0.00 | 0.00 | 87 | 1014.0 |
| 20260505084527 | 11 | 250 | 3.2 | 12.9 | 0.00 | 0.00 | 0.00 | 87 | 1014.0 |
| 20260505084027 | 11 | 278 | 3.2 | 12.9 | 0.00 | 0.00 | 0.00 | 87 | 1013.9 |
| 20260505083533 | 11 | 245 | 4.8 | 17.7 | 0.00 | 0.00 | 0.00 | 86 | 1014.0 |
| 20260505083527 | 11 | 240 | 4.8 | 17.7 | 0.00 | 0.00 | 0.00 | 86 | 1014.0 |
| 20260505082528 | 11 | 250 | 3.2 | 11.3 | 0.00 | 0.00 | 0.00 | 86 | 1013.9 |
| 20260505082028 | 11 | 241 | 1.6 | 11.3 | 0.00 | 0.00 | 0.00 | 85 | 1013.8 |
| 20260505081527 | 11 | 266 | 1.6 | 9.7 | 0.00 | 0.00 | 0.00 | 85 | 1013.8 |
| 20260505081031 | 11 | 281 | 1.6 | 8.0 | 0.00 | 0.00 | 0.00 | 85 | 1013.8 |
| 20260505081025 | 11 | 264 | 1.6 | 8.0 | 0.00 | 0.00 | 0.00 | 85 | 1013.8 |
| 20260505080025 | 12 | 285 | 1.6 | 8.0 | 0.00 | 0.00 | 0.00 | 85 | 1013.7 |
| 20260505075527 | 12 | 263 | 1.6 | 4.8 | 0.00 | 0.00 | 0.00 | 85 | 1013.8 |
| 20260505075027 | 12 | 249 | 1.6 | 11.3 | 0.00 | 0.00 | 0.00 | 84 | 1013.7 |
| 20260505074525 | 12 | 271 | 3.2 | 12.9 | 0.00 | 0.00 | 0.00 | 84 | 1013.6 |
| 20260505074026 | 12 | 245 | 4.8 | 16.1 | 0.00 | 0.00 | 0.00 | 84 | 1013.6 |
| 20260505073527 | 12 | 230 | 4.8 | 16.1 | 0.00 | 0.00 | 0.00 | 84 | 1013.5 |
| 20260505073027 | 12 | 264 | 4.8 | 14.5 | 0.00 | 0.00 | 0.00 | 84 | 1013.4 |
| 20260505072525 | 12 | 256 | 4.8 | 14.5 | 0.00 | 0.00 | 0.00 | 83 | 1013.3 |
| 20260505072029 | 12 | 251 | 4.8 | 12.9 | 0.00 | 0.00 | 0.00 | 83 | 1013.2 |
| 20260505072024 | 12 | 240 | 4.8 | 14.5 | 0.00 | 0.00 | 0.00 | 83 | 1013.3 |
| 20260505071523 | 12 | 219 | 4.8 | 14.5 | 0.00 | 0.00 | 0.00 | 83 | 1013.2 |
| 20260505071147 | 12 | 238 | 3.2 | 11.3 | 0.00 | 0.00 | 0.00 | 82 | 1013.1 |
| 20260505070025 | 12 | 278 | 3.2 | 12.9 | 0.00 | 0.00 | 0.00 | 82 | 1013.1 |
| 20260505065522 | 13 | 259 | 4.8 | 12.9 | 0.00 | 0.00 | 0.00 | 82 | 1013.1 |
| 20260505065021 | 13 | 234 | 4.8 | 12.9 | 0.00 | 0.00 | 0.00 | 83 | 1013.0 |
| 20260505064523 | 13 | 193 | 3.2 | 9.7 | 0.00 | 0.00 | 0.00 | 82 | 1012.9 |
| 20260505064027 | 13 | 279 | 1.6 | 11.3 | 0.00 | 0.00 | 0.00 | 82 | 1012.8 |
| 20260505064022 | 13 | 238 | 3.2 | 11.3 | 0.00 | 0.00 | 0.00 | 82 | 1012.8 |
| 20260505063029 | 13 | 261 | 3.2 | 9.7 | 0.00 | 0.00 | 0.00 | 81 | 1012.8 |
| 20260505063024 | 13 | 225 | 3.2 | 9.7 | 0.00 | 0.00 | 0.00 | 81 | 1012.7 |
| 20260505062022 | 13 | 243 | 3.2 | 11.3 | 0.00 | 0.00 | 0.00 | 80 | 1012.7 |
| 20260505061523 | 14 | 230 | 3.2 | 11.3 | 0.00 | 0.00 | 0.00 | 80 | 1012.8 |
| 20260505061022 | 14 | 247 | 4.8 | 11.3 | 0.00 | 0.00 | 0.00 | 79 | 1012.7 |
| 20260505060523 | 14 | 252 | 6.4 | 12.9 | 0.00 | 0.00 | 0.00 | 79 | 1012.6 |
| 20260505060023 | 14 | 256 | 4.8 | 14.5 | 0.00 | 0.00 | 0.00 | 78 | 1012.6 |
| 20260505055522 | 15 | 240 | 4.8 | 17.7 | 0.00 | 0.00 | 0.00 | 78 | 1012.6 |
| 20260505055023 | 15 | 259 | 3.2 | 17.7 | 0.00 | 0.00 | 0.00 | 77 | 1012.6 |
| 20260505054523 | 15 | 243 | 4.8 | 11.3 | 0.00 | 0.00 | 0.00 | 76 | 1012.5 |
| 20260505054023 | 15 | 269 | 4.8 | 11.3 | 0.00 | 0.00 | 0.00 | 76 | 1012.5 |
| 20260505053522 | 15 | 254 | 4.8 | 11.3 | 0.00 | 0.00 | 0.00 | 76 | 1012.5 |
| 20260505053020 | 15 | 242 | 3.2 | 9.7 | 0.00 | 0.00 | 0.00 | 76 | 1012.4 |
| 20260505052521 | 16 | 246 | 1.6 | 9.7 | 0.00 | 0.00 | 0.00 | 76 | 1012.5 |
| 20260505052020 | 16 | 250 | 0.0 | 6.4 | 0.00 | 0.00 | 0.00 | 76 | 1012.5 |
| 20260505051520 | 16 | 266 | 0.0 | 4.8 | 0.00 | 0.00 | 0.00 | 76 | 1012.4 |
| 20260505051021 | 16 | 264 | 1.6 | 4.8 | 0.00 | 0.00 | 0.00 | 76 | 1012.3 |
| 20260505050520 | 16 | 258 | 1.6 | 4.8 | 0.00 | 0.00 | 0.00 | 75 | 1012.3 |
| 20260505041521 | 17 | 250 | 3.2 | 11.3 | 0.00 | 0.00 | 0.00 | 75 | 1011.6 |
| 20260505041021 | 18 | 232 | 1.6 | 11.3 | 0.00 | 0.00 | 0.00 | 74 | 1011.4 |
| 20260505040520 | 18 | 244 | 1.6 | 12.9 | 0.00 | 0.00 | 0.00 | 74 | 1011.3 |
| 20260505040025 | 18 | 332 | 6.4 | 17.7 | 0.00 | 0.00 | 0.00 | 74 | 1011.2 |
| 20260505040020 | 18 | 229 | 3.2 | 12.9 | 0.00 | 0.00 | 0.00 | 74 | 1011.2 |
| 20260505035019 | 18 | 223 | 6.4 | 19.3 | 0.00 | 0.00 | 0.00 | 74 | 1011.1 |
| 20260505034518 | 18 | 245 | 4.8 | 19.3 | 0.00 | 0.00 | 0.00 | 74 | 1011.0 |
| 20260505034018 | 18 | 243 | 3.2 | 16.1 | 0.00 | 0.00 | 0.00 | 74 | 1010.9 |
| 20260505033518 | 18 | 258 | 3.2 | 9.7 | 0.00 | 0.00 | 0.00 | 74 | 1010.8 |
| 20260505033018 | 18 | 240 | 3.2 | 11.3 | 0.00 | 0.00 | 0.00 | 74 | 1010.8 |
| 20260505032518 | 18 | 217 | 3.2 | 16.1 | 0.00 | 0.00 | 0.00 | 74 | 1010.7 |
| 20260505032019 | 18 | 237 | 4.8 | 16.1 | 0.00 | 0.00 | 0.00 | 73 | 1010.7 |
| 20260505031517 | 19 | 213 | 4.8 | 12.9 | 0.00 | 0.00 | 0.00 | 73 | 1010.6 |
| 20260505031019 | 19 | 246 | 4.8 | 14.5 | 0.00 | 0.00 | 0.00 | 73 | 1010.6 |
| 20260505030521 | 19 | 250 | 3.2 | 11.3 | 0.00 | 0.00 | 0.00 | 72 | 1010.5 |
| 20260505030516 | 19 | 254 | 4.8 | 14.5 | 0.00 | 0.00 | 0.00 | 72 | 1010.6 |
| 20260505025515 | 19 | 263 | 3.2 | 12.9 | 0.00 | 0.00 | 0.00 | 71 | 1010.5 |
| 20260505025018 | 20 | 239 | 3.2 | 12.9 | 0.00 | 0.00 | 0.00 | 71 | 1010.5 |
| 20260505024517 | 20 | 240 | 3.2 | 12.9 | 0.00 | 0.00 | 0.00 | 70 | 1010.5 |
| 20260505024018 | 20 | 252 | 4.8 | 12.9 | 0.00 | 0.00 | 0.00 | 70 | 1010.5 |
| 20260505023517 | 20 | 272 | 4.8 | 12.9 | 0.00 | 0.00 | 0.00 | 69 | 1010.5 |
| 20260505023018 | 20 | 243 | 4.8 | 12.9 | 0.00 | 0.00 | 0.00 | 68 | 1010.5 |
| 20260505022516 | 21 | 251 | 6.4 | 16.1 | 0.00 | 0.00 | 0.00 | 67 | 1010.4 |
| 20260505022016 | 21 | 251 | 6.4 | 16.1 | 0.00 | 0.00 | 0.00 | 66 | 1010.5 |
| 20260505021519 | 21 | 226 | 4.8 | 14.5 | 0.00 | 0.00 | 0.00 | 65 | 1010.5 |
| 20260505021513 | 21 | 247 | 4.8 | 14.5 | 0.00 | 0.00 | 0.00 | 65 | 1010.5 |
| 20260505020514 | 21 | 247 | 4.8 | 14.5 | 0.00 | 0.00 | 0.00 | 65 | 1010.5 |
| 20260505020013 | 21 | 309 | 4.8 | 14.5 | 0.00 | 0.00 | 0.00 | 65 | 1010.5 |
| 20260505015515 | 21 | 283 | 4.8 | 14.5 | 0.00 | 0.00 | 0.00 | 65 | 1010.5 |
| 20260505015013 | 21 | 230 | 4.8 | 17.7 | 0.00 | 0.00 | 0.00 | 64 | 1010.5 |
| 20260505014520 | 21 | 271 | 6.4 | 16.1 | 0.00 | 0.00 | 0.00 | 64 | 1010.5 |
| 20260505014515 | 21 | 207 | 4.8 | 17.7 | 0.00 | 0.00 | 0.00 | 63 | 1010.5 |
| 20260505014138 | 21 | 259 | 4.8 | 16.1 | 0.00 | 0.00 | 0.00 | 63 | 1010.6 |
| 20260505013013 | 22 | 259 | 3.2 | 9.7 | 0.00 | 0.00 | 0.00 | 63 | 1010.7 |
| 20260505012512 | 21 | 254 | 6.4 | 16.1 | 0.00 | 0.00 | 0.00 | 64 | 1010.8 |
| 20260505012012 | 21 | 224 | 8.0 | 19.3 | 0.00 | 0.00 | 0.00 | 63 | 1010.8 |
| 20260505011519 | 21 | 173 | 4.8 | 14.5 | 0.00 | 0.00 | 0.00 | 63 | 1010.8 |
| 20260505011514 | 21 | 232 | 6.4 | 19.3 | 0.00 | 0.00 | 0.00 | 63 | 1010.7 |
| 20260505010513 | 22 | 238 | 6.4 | 14.5 | 0.00 | 0.00 | 0.00 | 62 | 1010.8 |
| 20260505010012 | 21 | 266 | 4.8 | 14.5 | 0.00 | 0.00 | 0.00 | 63 | 1010.8 |
| 20260505005512 | 21 | 149 | 4.8 | 17.7 | 0.00 | 0.00 | 0.00 | 63 | 1010.8 |
| 20260505005012 | 21 | 281 | 6.4 | 17.7 | 0.00 | 0.00 | 0.00 | 63 | 1010.9 |
| 20260505004509 | 21 | 254 | 8.0 | 22.5 | 0.00 | 0.00 | 0.00 | 64 | 1010.9 |
| 20260505004010 | 21 | 229 | 9.7 | 22.5 | 0.00 | 0.00 | 0.00 | 64 | 1010.9 |
| 20260505003510 | 21 | 202 | 9.7 | 19.3 | 0.00 | 0.00 | 0.00 | 63 | 1011.0 |
| 20260505003010 | 21 | 222 | 9.7 | 22.5 | 0.00 | 0.00 | 0.00 | 63 | 1011.0 |
| 20260505002510 | 21 | 188 | 9.7 | 22.5 | 0.00 | 0.00 | 0.00 | 62 | 1011.0 |
| 20260505002010 | 21 | 164 | 8.0 | 19.3 | 0.00 | 0.00 | 0.00 | 63 | 1011.0 |
| 20260505001511 | 21 | 255 | 6.4 | 14.5 | 0.00 | 0.00 | 0.00 | 62 | 1011.0 |
| 20260505001010 | 21 | 207 | 3.2 | 14.5 | 0.00 | 0.00 | 0.00 | 62 | 1011.0 |
| 20260505000510 | 21 | 289 | 3.2 | 12.9 | 0.00 | 0.00 | 0.00 | 62 | 1011.1 |
| 20260505000011 | 21 | 260 | 4.8 | 12.9 | 0.00 | 0.00 | 0.00 | 62 | 1011.1 |
| 20260504235509 | 21 | 197 | 9.7 | 24.1 | 0.00 | 0.00 | 0.00 | 63 | 1011.1 |
| 20260504235009 | 21 | 212 | 9.7 | 24.1 | 0.00 | 0.00 | 0.00 | 63 | 1011.1 |
| 20260504234513 | 21 | 226 | 6.4 | 16.1 | 0.00 | 0.00 | 0.00 | 63 | 1011.1 |
| 20260504234508 | 21 | 155 | 6.4 | 19.3 | 0.00 | 0.00 | 0.00 | 61 | 1011.1 |
| 20260504233511 | 21 | 255 | 9.7 | 19.3 | 0.00 | 0.00 | 0.00 | 62 | 1011.2 |
| 20260504233008 | 21 | 226 | 11.3 | 19.3 | 0.00 | 0.00 | 0.00 | 62 | 1011.2 |
| 20260504232513 | 21 | 169 | 6.4 | 17.7 | 0.00 | 0.00 | 0.00 | 62 | 1011.3 |
| 20260504232509 | 21 | 169 | 9.7 | 19.3 | 0.00 | 0.00 | 0.00 | 62 | 1011.2 |
| 20260504232130 | 21 | 207 | 4.8 | 16.1 | 0.00 | 0.00 | 0.00 | 62 | 1011.3 |
| 20260504231009 | 21 | 170 | 6.4 | 20.9 | 0.00 | 0.00 | 0.00 | 63 | 1011.3 |
| 20260504230511 | 21 | 214 | 4.8 | 20.9 | 0.00 | 0.00 | 0.00 | 63 | 1011.4 |
| 20260504230007 | 21 | 257 | 6.4 | 14.5 | 0.00 | 0.00 | 0.00 | 64 | 1011.6 |
| 20260504225506 | 20 | 249 | 8.0 | 14.5 | 0.00 | 0.00 | 0.00 | 63 | 1011.6 |
| 20260504225012 | 20 | 248 | 8.0 | 16.1 | 0.00 | 0.00 | 0.00 | 62 | 1011.7 |
| 20260504225006 | 20 | 164 | 8.0 | 16.1 | 0.00 | 0.00 | 0.00 | 62 | 1011.7 |
| 20260504224006 | 20 | 174 | 6.4 | 16.1 | 0.00 | 0.00 | 0.00 | 62 | 1011.7 |
| 20260504223507 | 20 | 247 | 6.4 | 14.5 | 0.00 | 0.00 | 0.00 | 63 | 1011.8 |
| 20260504223011 | 20 | 284 | 3.2 | 11.3 | 0.00 | 0.00 | 0.00 | 64 | 1011.9 |
| 20260504223006 | 20 | 207 | 3.2 | 12.9 | 0.00 | 0.00 | 0.00 | 62 | 1011.8 |
| 20260504222007 | 20 | 246 | 4.8 | 11.3 | 0.00 | 0.00 | 0.00 | 65 | 1011.9 |
| 20260504221504 | 20 | 162 | 6.4 | 16.1 | 0.00 | 0.00 | 0.00 | 64 | 1012.0 |
| 20260504221005 | 20 | 264 | 6.4 | 19.3 | 0.00 | 0.00 | 0.00 | 64 | 1012.0 |
| 20260504220504 | 19 | 229 | 6.4 | 19.3 | 0.00 | 0.00 | 0.00 | 65 | 1012.0 |
| 20260504220005 | 19 | 196 | 6.4 | 16.1 | 0.00 | 0.00 | 0.00 | 65 | 1012.1 |
| 20260504215508 | 20 | 212 | 6.4 | 16.1 | 0.00 | 0.00 | 0.00 | 64 | 1012.3 |
| 20260504215503 | 19 | 202 | 6.4 | 16.1 | 0.00 | 0.00 | 0.00 | 67 | 1012.3 |
| 20260504215124 | 19 | 244 | 6.4 | 17.7 | 0.00 | 0.00 | 0.00 | 66 | 1012.3 |
| 20260504214004 | 18 | 248 | 6.4 | 17.7 | 0.00 | 0.00 | 0.00 | 67 | 1012.4 |
| 20260504213502 | 18 | 276 | 6.4 | 16.1 | 0.00 | 0.00 | 0.00 | 67 | 1012.4 |
| 20260504213003 | 18 | 226 | 6.4 | 14.5 | 0.00 | 0.00 | 0.00 | 68 | 1012.5 |
| 20260504212500 | 18 | 240 | 6.4 | 16.1 | 0.00 | 0.00 | 0.00 | 68 | 1012.5 |
| 20260504212000 | 18 | 240 | 4.8 | 19.3 | 0.00 | 0.00 | 0.00 | 69 | 1012.6 |
| 20260504211501 | 18 | 236 | 6.4 | 19.3 | 0.00 | 0.00 | 0.00 | 68 | 1012.6 |
| 20260504211001 | 17 | 250 | 6.4 | 14.5 | 0.00 | 0.00 | 0.00 | 68 | 1012.7 |
| 20260504210459 | 18 | 247 | 6.4 | 16.1 | 0.00 | 0.00 | 0.00 | 68 | 1012.8 |
| 20260504210006 | 17 | 240 | 4.8 | 14.5 | 0.00 | 0.00 | 0.00 | 71 | 1013.0 |
| 20260504210000 | 17 | 223 | 6.4 | 16.1 | 0.00 | 0.00 | 0.00 | 69 | 1012.9 |
| 20260504205000 | 17 | 230 | 4.8 | 14.5 | 0.00 | 0.00 | 0.00 | 71 | 1013.1 |
| 20260504204501 | 17 | 299 | 6.4 | 16.1 | 0.00 | 0.00 | 0.00 | 70 | 1013.1 |
| 20260504203958 | 17 | 272 | 8.0 | 17.7 | 0.00 | 0.00 | 0.00 | 72 | 1013.1 |
| 20260504203459 | 17 | 150 | 8.0 | 17.7 | 0.00 | 0.00 | 0.00 | 70 | 1013.1 |
| 20260504202958 | 17 | 234 | 6.4 | 17.7 | 0.00 | 0.00 | 0.00 | 72 | 1013.1 |
| 20260504202457 | 17 | 145 | 6.4 | 17.7 | 0.00 | 0.00 | 0.00 | 72 | 1013.2 |
| 20260504201958 | 17 | 283 | 6.4 | 17.7 | 0.00 | 0.00 | 0.00 | 73 | 1013.2 |
| 20260504201457 | 16 | 205 | 6.4 | 14.5 | 0.00 | 0.00 | 0.00 | 74 | 1013.4 |
| 20260504201004 | 16 | 191 | 8.0 | 24.1 | 0.00 | 0.00 | 0.00 | 73 | 1013.4 |
| 20260504200958 | 16 | 278 | 8.0 | 24.1 | 0.00 | 0.00 | 0.00 | 73 | 1013.4 |
| 20260504195956 | 16 | 163 | 6.4 | 20.9 | 0.00 | 0.00 | 0.00 | 73 | 1013.5 |
| 20260504195501 | 16 | 298 | 4.8 | 14.5 | 0.00 | 0.00 | 0.00 | 75 | 1013.5 |
| 20260504195457 | 16 | 271 | 4.8 | 14.5 | 0.00 | 0.00 | 0.00 | 74 | 1013.5 |
| 20260504194454 | 16 | 238 | 6.4 | 16.1 | 0.00 | 0.00 | 0.00 | 75 | 1013.5 |